User: anonymous   Login
Location: Unspecified
(0.0000°N, 0.0000°E)
Time: 15:33:09
(UTC+00:00)
Language:

CERISE - Orbit

View from above orbital plane
View from above orbital plane
View from above satellite
View from above satellite

Ground track
Ground track

The orbit data is extracted from the following two-line orbital elements,

1 23606U 95033B   18115.90766638 +.00000781 +00000-0 +78091-4 0  9993
2 23606 098.2956 078.5721 0005469 019.0756 341.0667 14.94579169233112
Epoch (UTC): 25 April 2018 21:47:02
Eccentricity: 0.0005469
inclination: 98.2956°
perigee height: 580 km
apogee height: 587 km
right ascension of ascending node: 78.5721°
argument of perigee: 19.0756°
revolutions per day: 14.94579169
mean anomaly at epoch: 341.0667°
orbit number at epoch: 23311

The dashed part of the orbit path shows where the satellite is in the earth's shadow,  

DLR